Bookmark and Share
Track history (hours):
 

Valtellina

Last reported at 2014-Apr-24 10:33 UTC. Time now 2014-Apr-24 11:09 UTC.
Position N 40°59' E 001°59'.

Length 184 m; draft 10.8 m.

Type: Ship. MMSI: 247243900.

NotesDate/timePositionNaut miles runAvg speedWind from/ knotsBaromVisibWave heightAir tempDewpointWater temp
2014-Apr-24 10:33N 40°59' E 001°59'1211.9
2014-Apr-24 09:33N 40°48' E 001°52'1212.3
2014-Apr-24 08:33N 40°37' E 001°44'1312.5
2014-Apr-24 07:33N 40°26' E 001°37'1312.6
2014-Apr-24 06:33N 40°15' E 001°29'1212.3
2014-Apr-24 05:33N 40°04' E 001°22'1212.3
2014-Apr-24 04:33N 39°53' E 001°15'1312.5
2014-Apr-24 03:32N 39°42' E 001°07'1612.5
2014-Apr-24 02:16N 39°28' E 000°58'1012.7
2014-Apr-24 01:29N 39°19' E 000°52'1212.4
2014-Apr-24 00:33N 39°09' E 000°45'1812.1
2014-Apr-23 23:03N 38°52' E 000°34'2011.8
2014-Apr-23 21:20N 38°35' E 000°22'3914.0
2014-Apr-23 18:34N 38°02' W 000°06'9 8.3
2014-Apr-23 17:30N 37°55' W 000°12'1617.6
2014-Apr-23 16:33N 37°41' W 000°23'1411.8
2014-Apr-23 15:22N 37°31' W 000°36'1112.3
2014-Apr-23 14:29N 37°31' W 000°50'  
2014-Apr-17 23:05N 37°31' W 000°55'812.5
2014-Apr-17 22:26N 37°31' W 000°45'7 7.8
2014-Apr-17 21:32N 37°31' W 000°36'1212.2
2014-Apr-17 20:33N 37°34' W 000°22'122 9.1
2014-Apr-17 07:07N 38°37' E 001°51'5 8.5
2014-Apr-17 06:33N 38°41' E 001°54'8 8.3
2014-Apr-17 05:32N 38°48' E 001°59'8 8.4
2014-Apr-17 04:33N 38°55' E 002°04'8 8.4
2014-Apr-17 03:33N 39°01' E 002°12'8 8.3
2014-Apr-17 02:33N 39°08' E 002°18'9 8.6
2014-Apr-17 01:33N 39°15' E 002°24'9 8.6
2014-Apr-17 00:33N 39°22' E 002°30'9 8.5
2014-Apr-16 23:33N 39°29' E 002°36'4 4.2
2014-Apr-16 22:33N 39°33' E 002°38'0 0.0
2014-Apr-16 21:31N 39°33' E 002°38'0 0.0
2014-Apr-16 20:33N 39°33' E 002°38'0 0.0
2014-Apr-16 19:31N 39°33' E 002°38'0 0.0
2014-Apr-16 18:28N 39°33' E 002°38'0 0.0
2014-Apr-16 15:31N 39°33' E 002°38'0 0.0
2014-Apr-16 14:31N 39°33' E 002°38'0 0.0
2014-Apr-16 12:31N 39°33' E 002°38'0 0.0
2014-Apr-16 11:28N 39°33' E 002°38'0 0.0
2014-Apr-16 10:31N 39°33' E 002°38'0 0.0
2014-Apr-16 09:22N 39°33' E 002°38'0 0.0
2014-Apr-16 08:31N 39°33' E 002°38'0 0.0
2014-Apr-16 07:31N 39°33' E 002°38'0 0.0
2014-Apr-16 06:31N 39°33' E 002°38'0 0.0
2014-Apr-16 05:31N 39°33' E 002°38'0 0.0
2014-Apr-16 04:31N 39°33' E 002°38'0 0.0
2014-Apr-16 03:31N 39°33' E 002°38'0 0.0
2014-Apr-16 02:31N 39°33' E 002°38'0 0.0
2014-Apr-16 01:28N 39°33' E 002°38'0 0.0
2014-Apr-16 00:31N 39°33' E 002°38'0 0.0
2014-Apr-15 23:31N 39°33' E 002°38'0 0.0
2014-Apr-15 22:31N 39°33' E 002°38'0 0.0
2014-Apr-15 21:31N 39°33' E 002°38'0 0.0
2014-Apr-15 20:31N 39°33' E 002°38'0 0.0
2014-Apr-15 19:31N 39°33' E 002°38'0 0.0
2014-Apr-15 18:31N 39°33' E 002°38'0 0.0
2014-Apr-15 16:28N 39°33' E 002°38'0 0.0
2014-Apr-15 15:31N 39°33' E 002°38'0 0.0
2014-Apr-15 14:31N 39°33' E 002°38'0 0.0
2014-Apr-15 12:32N 39°33' E 002°38'0 0.0
2014-Apr-15 11:32N 39°33' E 002°38'0 0.0
2014-Apr-15 10:32N 39°33' E 002°38'0 0.0
2014-Apr-15 09:32N 39°33' E 002°38'0 0.0
2014-Apr-15 08:32N 39°33' E 002°38'0 0.0
2014-Apr-15 07:32N 39°33' E 002°38'0 0.0
2014-Apr-15 06:32N 39°33' E 002°38'0 0.0
2014-Apr-15 05:32N 39°33' E 002°38'0 0.0
2014-Apr-15 03:32N 39°33' E 002°38'0 0.0
2014-Apr-15 02:32N 39°33' E 002°38'0 0.0
2014-Apr-15 01:32N 39°33' E 002°38'0 0.0
2014-Apr-14 23:32N 39°33' E 002°38'0 0.0
2014-Apr-14 22:32N 39°33' E 002°38'0 0.0
2014-Apr-14 21:31N 39°33' E 002°38'0 0.0
2014-Apr-14 20:31N 39°33' E 002°38'0 0.0
2014-Apr-14 19:31N 39°33' E 002°38'0 0.0
2014-Apr-14 18:31N 39°33' E 002°38'0 0.0
2014-Apr-14 17:31N 39°33' E 002°38'0 0.0
2014-Apr-14 16:31N 39°33' E 002°38'0 0.0
2014-Apr-14 15:31N 39°33' E 002°38'0 0.0
2014-Apr-14 14:31N 39°33' E 002°38'0 0.0
2014-Apr-14 13:31N 39°33' E 002°38'0 0.0
2014-Apr-14 11:31N 39°33' E 002°38'  

Dump ship's entire track history

sailing weather and tide predictions

Valtellina — ICKF — position and weather